Regional Weather Roundup
Issued by NWS Newport/Morehead, NC

Current Version | Previous Version | Text Only | Print | Product List | Glossary On
Versions: 1 2 3 4 5 6 7 8 9 10 11 12 13 14 15 16 17 18 19 20 21 22 23 24 25 26 27 28 29 30 31 32 33 34 35 36 37 38 39 40 41 42 43 44 45 46 47 48 49 50
000
ASUS42 KMHX 250322
RWRMHX
WEATHER ROUNDUP FOR EASTERN NORTH CAROLINA
NATIONAL WEATHER SERVICE NEWPORT/MOREHEAD CITY NC
1000 PM EST SAT JAN 24 2015

NOTE: "FAIR" INDICATES FEW OR NO CLOUDS BELOW 12,000 FEET
WITH NO SIGNIFICANT WEATHER AND/OR OBSTRUCTIONS TO VISIBILITY

NCZ015>017-031-032-045>047-102-103-250400-
NORTH COAST

CITY           SKY/WX    TMP DP  RH WIND       PRES   REMARKS
EDENTON        CLEAR     41  35  76 W8        29.75R
ELIZABETH CITY CLEAR     40  36  86 W10       29.72R
KITTY HAWK     CLEAR     42  41  96 W9G16     29.71R
MANTEO         CLEAR     41  39  93 W9        29.73R

$$

NCZ045>047-081-094-103-104-250400-
CENTRAL COAST

CITY           SKY/WX    TMP DP  RH WIND       PRES   REMARKS
FRISCO         CLEAR     45  41  86 W13G20    29.75R
SWANQUARTER    NOT AVBL

$$

NCZ095-097-098-100-101-250400-
SOUTHERN COAST

CITY           SKY/WX    TMP DP  RH WIND       PRES   REMARKS
BEAUFORT       CLEAR     46  42  86 W15       29.79R
CEDAR ISLAND   NOT AVBL
JACKSONVILLE   CLEAR     43  39  86 W8        29.80R
PINEY ISLAND     N/A    N/A N/A N/A MISG      29.77R
WILMINGTON     CLEAR     43  40  89 W9        29.83R


$$

NCZ011>013-027>030-043-044-078>080-089-090>093-098-250400-
COASTAL PLAIN

CITY           SKY/WX    TMP DP  RH WIND       PRES   REMARKS
AHOSKIE        FAIR      35  31  83 CALM      29.75R
CLINTON        CLEAR     38  37  99 CALM      29.81R
ELIZABETHTOWN  CLEAR     39  38  97 CALM      29.82R
GOLDSBORO      CLEAR     39  39  98 SW5       29.78R
GREENVILLE     CLEAR     41  34  75 W3        29.80R
HAVELOCK       CLEAR     43  39  86 W12       29.80R
KENANSVILLE    CLEAR     38  37  97 SW5       29.81R
KINSTON        CLEAR     40  35  84 SW3       29.80R
NEW BERN       CLEAR     43  38  82 SW6       29.80R
RICHLANDS      CLEAR     39  36  87 W5        29.81R
ROCKY MOUNT    CLEAR     39  30  70 W5        29.77R
WASHINGTON     CLEAR     38  35  88 W3        29.77S
WHITEVILLE     CLEAR     43  40  89 CALM      29.83R

$$

AMZ130-135-150-152-154-156-158-170-250-252-270-ANZ085-086-088-633-658-670-250400-
MARINE OBSERVATIONS

STATION/POSITION TIME  TEMP    WIND        PRES    WAVE   SWELL
                       AIR SEA DIR/SP/G            HT/PER HT/PER
                 (UTC) (F)     (DEG/KT/KT) (MB)    (FT/S) (FT/S)
CHESAPEAKE LIGHT 0300   42     260/ 23/ 24 1005.2
64 E VA BEACH    0300   46 53  270/ 21/ 25 1004.0    8/ 6   3/11
DUCK             0300   44 43  260/ 14/ 20 1005.4
2 E DUCK         0300      43                N/A     4/11   2/11
10 NE DUCK       0300      45                N/A     5/11   3/11
OREGON INLET     0300   43 48  250/ 13/ 17 1006.5
13E OREGON INLT  0300      46                N/A     6/11   3/11
HATTERAS CG      0300   47 57  270/ 16/ 18 1007.5
DIAMOND BUOY     0300   52 71  290/ 23/ 27 1006.4    9/10   5/10
17 S OCRACOKE    NOT AVBL
CAPE LOOKOUT     0300   49     270/ 17/ 21 1008.4
BEAUFORT LAB     0300   47 51  260/  5/ 14 1007.6
27 SE WRIGHTSVLE NOT AVBL
5 SE WRIGHTSVLE  0300   49 51  260/ 16/ 19 1009.6
225 S CAPE HAT   0155   65 72  300/ 23/ 29 1008.6   16/10  13/10
41 SE CHARLESTON 0300   56 70  290/ 21/ 25 1011.1    8/ 8   3/11

$$


USA.gov is the U.S. government's official web portal to all federal, state and local government web resources and services.